| time (UTC) | temp F | wind direction | speed knots | gust knots | rain 1hr in | rain 24hr in | rain mn in | humidity % | barometer mb |
| 20260506084003 | 50 | 244 | 5.2 | 13.0 | 0.00 | 0.00 | 0.00 | 91 | 1019.2 |
| 20260506083503 | 50 | 244 | 6.1 | 9.6 | 0.00 | 0.00 | 0.00 | 91 | 1019.2 |
| 20260506083003 | 50 | 240 | 6.1 | 9.6 | 0.00 | 0.00 | 0.00 | 91 | 1019.2 |
| 20260506081003 | 50 | 244 | 5.2 | 10.4 | 0.00 | 0.00 | 0.00 | 91 | 1019.3 |
| 20260506080503 | 50 | 241 | 6.1 | 12.2 | 0.00 | 0.00 | 0.00 | 92 | 1019.4 |
| 20260506073503 | 50 | 230 | 5.2 | 9.6 | 0.00 | 0.00 | 0.00 | 93 | 1019.5 |
| 20260506073003 | 50 | 237 | 5.2 | 12.2 | 0.00 | 0.00 | 0.00 | 93 | 1019.6 |
| 20260506072503 | 50 | 240 | 5.2 | 13.0 | 0.00 | 0.00 | 0.00 | 93 | 1019.6 |
| 20260506072003 | 50 | 238 | 5.2 | 13.0 | 0.00 | 0.00 | 0.00 | 93 | 1019.5 |
| 20260506071503 | 50 | 241 | 6.1 | 13.0 | 0.00 | 0.00 | 0.00 | 94 | 1019.6 |
| 20260506071003 | 50 | 245 | 6.1 | 13.0 | 0.00 | 0.00 | 0.00 | 94 | 1019.5 |
| 20260506070503 | 50 | 243 | 6.1 | 13.0 | 0.00 | 0.00 | 0.00 | 94 | 1019.5 |
| 20260506062503 | 47 | 246 | 6.1 | 14.8 | 0.00 | 0.00 | 0.00 | 95 | 1019.7 |
| 20260506062003 | 47 | 243 | 7.0 | 15.6 | 0.00 | 0.00 | 0.00 | 95 | 1019.8 |
| 20260506061503 | 47 | 246 | 7.8 | 15.6 | 0.00 | 0.00 | 0.00 | 95 | 1019.8 |
| 20260506061003 | 47 | 249 | 7.8 | 16.5 | 0.00 | 0.00 | 0.00 | 95 | 1019.8 |
| 20260506060503 | 47 | 247 | 8.7 | 16.5 | 0.00 | 0.00 | 0.00 | 95 | 1019.8 |
| 20260506051003 | 46 | 244 | 8.7 | 14.8 | 0.00 | 0.00 | 0.00 | 94 | 1019.0 |
| 20260506050503 | 46 | 246 | 9.6 | 15.6 | 0.00 | 0.00 | 0.00 | 94 | 1019.2 |
| 20260506045003 | 46 | 248 | 10.4 | 20.9 | 0.00 | 0.00 | 0.00 | 93 | 1019.5 |
| 20260506044503 | 46 | 252 | 9.6 | 20.9 | 0.00 | 0.00 | 0.00 | 93 | 1019.5 |
| 20260506044003 | 46 | 251 | 8.7 | 19.1 | 0.00 | 0.00 | 0.00 | 93 | 1019.6 |
| 20260506043504 | 46 | 251 | 8.7 | 16.5 | 0.00 | 0.00 | 0.00 | 92 | 1019.6 |
| 20260506043003 | 46 | 248 | 7.8 | 14.8 | 0.00 | 0.00 | 0.00 | 92 | 1019.7 |
| 20260506042503 | 46 | 247 | 7.8 | 20.9 | 0.00 | 0.00 | 0.00 | 92 | 1019.7 |
| 20260506042003 | 46 | 244 | 8.7 | 20.9 | 0.00 | 0.00 | 0.00 | 92 | 1019.8 |
| 20260506041503 | 46 | 240 | 8.7 | 17.4 | 0.00 | 0.00 | 0.00 | 92 | 1019.6 |
| 20260506041003 | 46 | 249 | 9.6 | 19.1 | 0.00 | 0.00 | 0.00 | 92 | 1019.6 |
| 20260506040503 | 46 | 252 | 10.4 | 19.1 | 0.00 | 0.00 | 0.00 | 92 | 1019.5 |
| 20260506040003 | 45 | 249 | 8.7 | 18.2 | 0.00 | 0.00 | 0.00 | 91 | 1019.4 |
| 20260506035504 | 45 | 250 | 8.7 | 17.4 | 0.00 | 0.00 | 0.00 | 91 | 1019.4 |
| 20260506035004 | 45 | 251 | 9.6 | 17.4 | 0.00 | 0.00 | 0.00 | 91 | 1019.4 |
| 20260506034503 | 45 | 251 | 9.6 | 16.5 | 0.00 | 0.00 | 0.00 | 91 | 1019.4 |
| 20260506034003 | 45 | 253 | 8.7 | 17.4 | 0.00 | 0.00 | 0.00 | 91 | 1019.4 |
| 20260506033503 | 45 | 254 | 8.7 | 17.4 | 0.00 | 0.00 | 0.00 | 91 | 1019.4 |
| 20260506033004 | 45 | 255 | 8.7 | 16.5 | 0.00 | 0.00 | 0.00 | 91 | 1019.3 |
| 20260506032503 | 45 | 254 | 9.6 | 17.4 | 0.00 | 0.00 | 0.00 | 90 | 1019.1 |
| 20260506032003 | 45 | 253 | 9.6 | 17.4 | 0.00 | 0.00 | 0.00 | 90 | 1019.0 |
| 20260506031525 | 45 | 255 | 7.8 | 14.8 | 0.00 | 0.00 | 0.00 | 90 | 1019.1 |
| 20260506031003 | 45 | 254 | 7.8 | 14.8 | 0.00 | 0.00 | 0.00 | 90 | 1019.0 |
| 20260506030503 | 45 | 250 | 7.8 | 14.8 | 0.00 | 0.00 | 0.00 | 90 | 1019.0 |
| 20260506030003 | 45 | 252 | 8.7 | 14.8 | 0.00 | 0.00 | 0.00 | 90 | 1018.9 |
| 20260506025503 | 45 | 256 | 7.8 | 13.9 | 0.00 | 0.00 | 0.00 | 90 | 1018.9 |
| 20260506025003 | 45 | 256 | 7.0 | 12.2 | 0.00 | 0.00 | 0.00 | 90 | 1018.8 |
| 20260506024503 | 44 | 255 | 7.8 | 15.6 | 0.00 | 0.00 | 0.00 | 90 | 1018.9 |
| 20260506024003 | 44 | 254 | 8.7 | 15.6 | 0.00 | 0.00 | 0.00 | 89 | 1018.7 |
| 20260506023503 | 44 | 253 | 9.6 | 13.9 | 0.00 | 0.00 | 0.00 | 89 | 1018.7 |
| 20260506023003 | 44 | 252 | 10.4 | 13.9 | 0.00 | 0.00 | 0.00 | 89 | 1018.6 |
| 20260506022503 | 44 | 255 | 9.6 | 18.2 | 0.00 | 0.00 | 0.00 | 89 | 1018.4 |
| 20260506022003 | 44 | 254 | 9.6 | 18.2 | 0.00 | 0.00 | 0.00 | 89 | 1018.5 |
| 20260506021503 | 45 | 253 | 9.6 | 16.5 | 0.00 | 0.00 | 0.00 | 88 | 1018.4 |
| 20260506021003 | 45 | 253 | 8.7 | 16.5 | 0.00 | 0.00 | 0.00 | 88 | 1018.4 |
| 20260506020503 | 45 | 249 | 8.7 | 17.4 | 0.00 | 0.00 | 0.00 | 88 | 1018.5 |
| 20260506020003 | 45 | 248 | 7.8 | 17.4 | 0.00 | 0.00 | 0.00 | 88 | 1018.5 |
| 20260506015503 | 45 | 250 | 8.7 | 15.6 | 0.00 | 0.00 | 0.00 | 88 | 1018.3 |
| 20260506015003 | 45 | 248 | 8.7 | 16.5 | 0.00 | 0.00 | 0.00 | 88 | 1018.4 |
| 20260506014503 | 45 | 248 | 7.8 | 16.5 | 0.00 | 0.00 | 0.00 | 88 | 1018.4 |
| 20260506014003 | 45 | 254 | 7.8 | 15.6 | 0.00 | 0.00 | 0.00 | 88 | 1018.3 |
| 20260506013503 | 45 | 259 | 7.8 | 15.6 | 0.00 | 0.00 | 0.00 | 87 | 1018.1 |
| 20260506013003 | 45 | 255 | 7.8 | 15.6 | 0.00 | 0.00 | 0.00 | 87 | 1018.1 |
| 20260506012503 | 45 | 251 | 9.6 | 15.6 | 0.00 | 0.00 | 0.00 | 87 | 1018.0 |
| 20260506012024 | 45 | 252 | 9.6 | 15.6 | 0.00 | 0.00 | 0.00 | 87 | 1017.9 |
| 20260506011503 | 45 | 255 | 9.6 | 17.4 | 0.00 | 0.00 | 0.00 | 87 | 1017.9 |
| 20260506011024 | 45 | 254 | 8.7 | 20.0 | 0.00 | 0.00 | 0.00 | 87 | 1017.9 |
| 20260506010503 | 45 | 256 | 7.8 | 20.0 | 0.00 | 0.00 | 0.00 | 87 | 1017.9 |
| 20260506010024 | 45 | 261 | 7.0 | 13.0 | 0.00 | 0.00 | 0.00 | 87 | 1017.8 |
| 20260506005503 | 45 | 261 | 7.0 | 14.8 | 0.00 | 0.00 | 0.00 | 87 | 1017.6 |
| 20260506005004 | 45 | 258 | 7.0 | 14.8 | 0.00 | 0.00 | 0.00 | 87 | 1017.6 |
| 20260506004503 | 45 | 260 | 7.0 | 17.4 | 0.00 | 0.00 | 0.00 | 86 | 1017.5 |
| 20260506004003 | 45 | 264 | 7.8 | 17.4 | 0.00 | 0.00 | 0.00 | 86 | 1017.6 |
| 20260506003524 | 45 | 261 | 7.8 | 15.6 | 0.00 | 0.00 | 0.00 | 86 | 1017.5 |
| 20260506003003 | 45 | 259 | 7.8 | 15.6 | 0.00 | 0.00 | 0.00 | 86 | 1017.3 |
| 20260506002503 | 45 | 257 | 7.8 | 13.9 | 0.00 | 0.00 | 0.00 | 86 | 1017.3 |
| 20260506002003 | 45 | 255 | 7.0 | 13.9 | 0.00 | 0.00 | 0.00 | 85 | 1017.2 |
| 20260506001503 | 45 | 259 | 6.1 | 13.9 | 0.00 | 0.00 | 0.00 | 85 | 1017.2 |
| 20260506001003 | 45 | 255 | 7.0 | 11.3 | 0.00 | 0.00 | 0.00 | 85 | 1017.1 |
| 20260506000503 | 45 | 255 | 7.0 | 11.3 | 0.00 | 0.00 | 0.00 | 84 | 1017.1 |
| 20260506000003 | 45 | 255 | 7.8 | 13.0 | 0.00 | 0.00 | 0.00 | 84 | 1017.1 |
| 20260505235503 | 45 | 252 | 7.8 | 13.9 | 0.00 | 0.00 | 0.00 | 84 | 1017.1 |
| 20260505235003 | 45 | 250 | 7.8 | 13.9 | 0.00 | 0.00 | 0.00 | 83 | 1017.0 |
| 20260505234504 | 45 | 250 | 7.0 | 12.2 | 0.00 | 0.00 | 0.00 | 83 | 1016.8 |
| 20260505233504 | 46 | 251 | 9.6 | 17.4 | 0.00 | 0.00 | 0.00 | 82 | 1016.6 |
| 20260505233003 | 46 | 247 | 9.6 | 17.4 | 0.00 | 0.00 | 0.00 | 82 | 1016.5 |
| 20260505232503 | 46 | 243 | 8.7 | 18.2 | 0.00 | 0.00 | 0.00 | 81 | 1016.4 |
| 20260505232003 | 46 | 242 | 8.7 | 18.2 | 0.00 | 0.00 | 0.00 | 81 | 1016.2 |
| 20260505231503 | 46 | 245 | 7.8 | 13.9 | 0.00 | 0.00 | 0.00 | 80 | 1016.2 |
| 20260505231024 | 46 | 249 | 7.8 | 13.0 | 0.00 | 0.00 | 0.00 | 79 | 1016.0 |
| 20260505230503 | 47 | 248 | 7.8 | 13.0 | 0.00 | 0.00 | 0.00 | 79 | 1015.9 |
| 20260505230003 | 47 | 247 | 8.7 | 19.1 | 0.00 | 0.00 | 0.00 | 78 | 1015.7 |
| 20260505225504 | 47 | 247 | 8.7 | 19.1 | 0.00 | 0.00 | 0.00 | 78 | 1015.6 |
| 20260505225003 | 48 | 247 | 8.7 | 15.6 | 0.00 | 0.00 | 0.00 | 78 | 1015.5 |
| 20260505224503 | 48 | 246 | 8.7 | 17.4 | 0.00 | 0.00 | 0.00 | 77 | 1015.4 |
| 20260505224003 | 48 | 242 | 9.6 | 19.1 | 0.00 | 0.00 | 0.00 | 76 | 1015.3 |
| 20260505223503 | 49 | 244 | 8.7 | 19.1 | 0.00 | 0.00 | 0.00 | 76 | 1015.3 |
| 20260505223003 | 49 | 245 | 8.7 | 16.5 | 0.00 | 0.00 | 0.00 | 75 | 1015.3 |
| 20260505222503 | 50 | 247 | 7.8 | 15.6 | 0.00 | 0.00 | 0.00 | 74 | 1015.1 |
| 20260505222024 | 50 | 247 | 7.8 | 13.9 | 0.00 | 0.00 | 0.00 | 74 | 1015.1 |
| 20260505221503 | 51 | 247 | 8.7 | 17.4 | 0.00 | 0.00 | 0.00 | 73 | 1014.9 |
| 20260505221003 | 51 | 247 | 8.7 | 17.4 | 0.00 | 0.00 | 0.00 | 73 | 1014.8 |
| 20260505220503 | 51 | 245 | 7.8 | 13.0 | 0.00 | 0.00 | 0.00 | 72 | 1014.8 |
| 20260505220003 | 52 | 239 | 7.8 | 14.8 | 0.00 | 0.00 | 0.00 | 71 | 1014.8 |
| 20260505215503 | 52 | 237 | 7.0 | 14.8 | 0.00 | 0.00 | 0.00 | 70 | 1014.9 |
| 20260505215003 | 52 | 233 | 7.0 | 14.8 | 0.00 | 0.00 | 0.00 | 69 | 1014.7 |
| 20260505214524 | 53 | 233 | 7.8 | 14.8 | 0.00 | 0.00 | 0.00 | 68 | 1014.7 |
| 20260505214003 | 54 | 234 | 7.0 | 13.9 | 0.00 | 0.00 | 0.00 | 67 | 1014.5 |
| 20260505213503 | 55 | 231 | 6.1 | 13.9 | 0.00 | 0.00 | 0.00 | 66 | 1014.4 |
| 20260505213003 | 55 | 230 | 6.1 | 14.8 | 0.00 | 0.00 | 0.00 | 65 | 1014.4 |
| 20260505212503 | 56 | 237 | 7.8 | 16.5 | 0.00 | 0.00 | 0.00 | 64 | 1014.3 |
| 20260505212003 | 56 | 246 | 10.4 | 19.1 | 0.00 | 0.00 | 0.00 | 64 | 1014.1 |
| 20260505211503 | 56 | 248 | 11.3 | 21.7 | 0.00 | 0.00 | 0.00 | 62 | 1014.1 |
| 20260505211003 | 56 | 247 | 10.4 | 21.7 | 0.00 | 0.00 | 0.00 | 61 | 1013.8 |
| 20260505210525 | 57 | 246 | 10.4 | 19.1 | 0.00 | 0.00 | 0.00 | 60 | 1013.9 |
| 20260505210003 | 58 | 247 | 10.4 | 21.7 | 0.00 | 0.00 | 0.00 | 58 | 1013.7 |
| 20260505205503 | 58 | 252 | 12.2 | 21.7 | 0.00 | 0.00 | 0.00 | 57 | 1013.7 |
| 20260505205003 | 58 | 245 | 13.0 | 20.0 | 0.00 | 0.00 | 0.00 | 56 | 1013.6 |
| 20260505204503 | 58 | 236 | 12.2 | 21.7 | 0.00 | 0.00 | 0.00 | 54 | 1013.6 |
| 20260505204003 | 59 | 237 | 10.4 | 21.7 | 0.00 | 0.00 | 0.00 | 52 | 1013.7 |
| 20260505203503 | 59 | 231 | 10.4 | 19.1 | 0.00 | 0.00 | 0.00 | 51 | 1013.7 |
| 20260505203003 | 59 | 224 | 10.4 | 20.0 | 0.00 | 0.00 | 0.00 | 50 | 1013.6 |
| 20260505202503 | 59 | 233 | 10.4 | 21.7 | 0.00 | 0.00 | 0.00 | 48 | 1013.5 |
| 20260505202003 | 60 | 248 | 10.4 | 21.7 | 0.00 | 0.00 | 0.00 | 45 | 1013.5 |
| 20260505201503 | 60 | 250 | 10.4 | 22.6 | 0.00 | 0.00 | 0.00 | 42 | 1013.4 |
| 20260505201024 | 60 | 243 | 10.4 | 22.6 | 0.00 | 0.00 | 0.00 | 40 | 1013.3 |
| 20260505200524 | 60 | 236 | 10.4 | 20.9 | 0.00 | 0.00 | 0.00 | 38 | 1013.4 |
| 20260505200003 | 60 | 242 | 10.4 | 20.9 | 0.00 | 0.00 | 0.00 | 38 | 1013.4 |
| 20260505195503 | 61 | 250 | 11.3 | 20.0 | 0.00 | 0.00 | 0.00 | 39 | 1013.1 |
| 20260505195003 | 61 | 257 | 9.6 | 18.2 | 0.00 | 0.00 | 0.00 | 38 | 1013.0 |
| 20260505194503 | 60 | 263 | 9.6 | 20.0 | 0.00 | 0.00 | 0.00 | 38 | 1013.1 |
| 20260505194003 | 61 | 255 | 11.3 | 22.6 | 0.00 | 0.00 | 0.00 | 39 | 1013.0 |
| 20260505193525 | 60 | 247 | 11.3 | 22.6 | 0.00 | 0.00 | 0.00 | 39 | 1013.0 |
| 20260505193003 | 60 | 252 | 13.0 | 25.2 | 0.00 | 0.00 | 0.00 | 41 | 1012.9 |
| 20260505192524 | 59 | 254 | 15.6 | 26.9 | 0.00 | 0.00 | 0.00 | 41 | 1012.9 |
| 20260505192003 | 59 | 251 | 14.8 | 26.9 | 0.00 | 0.00 | 0.00 | 43 | 1012.8 |
| 20260505191524 | 60 | 251 | 14.8 | 26.9 | 0.00 | 0.00 | 0.00 | 42 | 1013.1 |
| 20260505191003 | 59 | 249 | 13.9 | 26.9 | 0.00 | 0.00 | 0.00 | 43 | 1012.8 |
| 20260505190503 | 59 | 247 | 13.9 | 28.7 | 0.00 | 0.00 | 0.00 | 44 | 1012.6 |
| 20260505190004 | 59 | 252 | 14.8 | 28.7 | 0.00 | 0.00 | 0.00 | 43 | 1012.7 |
| 20260505185503 | 60 | 251 | 16.5 | 29.5 | 0.00 | 0.00 | 0.00 | 44 | 1012.7 |
| 20260505185003 | 59 | 248 | 17.4 | 29.5 | 0.00 | 0.00 | 0.00 | 44 | 1012.6 |
| 20260505184503 | 59 | 254 | 16.5 | 30.4 | 0.00 | 0.00 | 0.00 | 43 | 1012.5 |
| 20260505184024 | 59 | 256 | 16.5 | 30.4 | 0.00 | 0.00 | 0.00 | 42 | 1012.4 |
| 20260505183503 | 59 | 255 | 16.5 | 31.3 | 0.00 | 0.00 | 0.00 | 45 | 1012.4 |
| 20260505183003 | 60 | 257 | 14.8 | 31.3 | 0.00 | 0.00 | 0.00 | 44 | 1012.4 |
| 20260505182503 | 60 | 255 | 13.9 | 25.2 | 0.00 | 0.00 | 0.00 | 45 | 1012.4 |
| 20260505182003 | 60 | 259 | 14.8 | 25.2 | 0.00 | 0.00 | 0.00 | 43 | 1012.3 |
| 20260505181503 | 59 | 261 | 14.8 | 26.9 | 0.00 | 0.00 | 0.00 | 46 | 1012.3 |
| 20260505181024 | 59 | 257 | 15.6 | 27.8 | 0.00 | 0.00 | 0.00 | 44 | 1012.3 |
| 20260505180503 | 59 | 254 | 14.8 | 29.5 | 0.00 | 0.00 | 0.00 | 45 | 1012.5 |
| 20260505180003 | 59 | 255 | 14.8 | 29.5 | 0.00 | 0.00 | 0.00 | 46 | 1012.6 |
| 20260505175503 | 59 | 258 | 13.9 | 24.3 | 0.00 | 0.00 | 0.00 | 46 | 1012.4 |
| 20260505175025 | 59 | 253 | 13.9 | 24.3 | 0.00 | 0.00 | 0.00 | 45 | 1012.4 |
| 20260505174503 | 60 | 254 | 13.0 | 24.3 | 0.00 | 0.00 | 0.00 | 45 | 1012.4 |
| 20260505174003 | 60 | 252 | 12.2 | 24.3 | 0.00 | 0.00 | 0.00 | 47 | 1012.3 |
| 20260505173503 | 59 | 247 | 12.2 | 24.3 | 0.00 | 0.00 | 0.00 | 46 | 1012.1 |
| 20260505173003 | 60 | 248 | 11.3 | 24.3 | 0.00 | 0.00 | 0.00 | 47 | 1012.1 |
| 20260505172503 | 59 | 251 | 13.0 | 27.8 | 0.00 | 0.00 | 0.00 | 47 | 1012.0 |
| 20260505172003 | 59 | 256 | 14.8 | 27.8 | 0.00 | 0.00 | 0.00 | 44 | 1012.2 |
| 20260505171524 | 59 | 257 | 13.0 | 26.1 | 0.00 | 0.00 | 0.00 | 47 | 1012.0 |
| 20260505171003 | 59 | 252 | 13.0 | 26.1 | 0.00 | 0.00 | 0.00 | 46 | 1011.9 |
| 20260505170504 | 58 | 252 | 14.8 | 28.7 | 0.00 | 0.00 | 0.00 | 46 | 1011.7 |
| 20260505170003 | 59 | 249 | 15.6 | 28.7 | 0.00 | 0.00 | 0.00 | 46 | 1011.7 |
| 20260505165524 | 59 | 247 | 14.8 | 26.9 | 0.00 | 0.00 | 0.00 | 45 | 1011.8 |
| 20260505165003 | 59 | 256 | 15.6 | 27.8 | 0.00 | 0.00 | 0.00 | 46 | 1011.7 |
| 20260505164503 | 59 | 263 | 16.5 | 31.3 | 0.00 | 0.00 | 0.00 | 46 | 1011.7 |
| 20260505164003 | 59 | 262 | 15.6 | 31.3 | 0.00 | 0.00 | 0.00 | 46 | 1011.5 |
| 20260505163503 | 60 | 263 | 14.8 | 26.9 | 0.00 | 0.00 | 0.00 | 44 | 1011.7 |
| 20260505163003 | 60 | 255 | 12.2 | 25.2 | 0.00 | 0.00 | 0.00 | 42 | 1011.4 |
| 20260505162503 | 59 | 243 | 12.2 | 25.2 | 0.00 | 0.00 | 0.00 | 41 | 1011.3 |
| 20260505162003 | 60 | 254 | 13.9 | 26.9 | 0.00 | 0.00 | 0.00 | 38 | 1011.2 |
| 20260505161524 | 60 | 261 | 14.8 | 26.9 | 0.00 | 0.00 | 0.00 | 43 | 1010.9 |
| 20260505161003 | 60 | 257 | 13.0 | 26.9 | 0.00 | 0.00 | 0.00 | 43 | 1010.9 |
| 20260505160503 | 60 | 255 | 12.2 | 20.0 | 0.00 | 0.00 | 0.00 | 40 | 1010.9 |
| 20260505153003 | 59 | 247 | 13.9 | 27.8 | 0.00 | 0.00 | 0.00 | 43 | 1010.7 |
| 20260505152504 | 58 | 245 | 13.9 | 25.2 | 0.00 | 0.00 | 0.00 | 44 | 1010.7 |
| 20260505152003 | 58 | 248 | 15.6 | 26.9 | 0.00 | 0.00 | 0.00 | 44 | 1010.8 |
| 20260505151524 | 58 | 253 | 14.8 | 26.9 | 0.00 | 0.00 | 0.00 | 47 | 1010.7 |
| 20260505151003 | 58 | 255 | 13.0 | 22.6 | 0.00 | 0.00 | 0.00 | 48 | 1010.6 |
| 20260505150503 | 58 | 262 | 13.9 | 24.3 | 0.00 | 0.00 | 0.00 | 47 | 1010.6 |
| 20260505140524 | 57 | 255 | 11.3 | 25.2 | 0.00 | 0.00 | 0.00 | 55 | 1010.2 |
| 20260505125024 | 53 | 257 | 13.9 | 25.2 | 0.00 | 0.00 | 0.00 | 68 | 1009.3 |
| 20260505124503 | 52 | 256 | 13.0 | 25.2 | 0.00 | 0.00 | 0.00 | 68 | 1009.3 |
| 20260505124003 | 52 | 256 | 12.2 | 24.3 | 0.00 | 0.00 | 0.00 | 68 | 1009.1 |
| 20260505123503 | 52 | 249 | 12.2 | 19.1 | 0.00 | 0.00 | 0.00 | 69 | 1009.1 |
| 20260505123003 | 52 | 248 | 13.9 | 24.3 | 0.00 | 0.00 | 0.00 | 68 | 1009.0 |
| 20260505122503 | 52 | 250 | 13.9 | 24.3 | 0.00 | 0.00 | 0.00 | 70 | 1009.0 |
| 20260505122003 | 52 | 249 | 13.0 | 23.5 | 0.00 | 0.00 | 0.00 | 70 | 1008.9 |
| 20260505121503 | 52 | 245 | 11.3 | 20.0 | 0.00 | 0.00 | 0.00 | 71 | 1008.8 |
| 20260505120503 | 51 | 256 | 11.3 | 18.2 | 0.00 | 0.00 | 0.00 | 73 | 1008.5 |
| 20260505115503 | 50 | 243 | 8.7 | 18.2 | 0.00 | 0.00 | 0.00 | 75 | 1008.4 |
| 20260505115003 | 50 | 242 | 10.4 | 20.9 | 0.00 | 0.00 | 0.00 | 75 | 1008.4 |
| 20260505114503 | 50 | 242 | 8.7 | 20.9 | 0.00 | 0.00 | 0.00 | 76 | 1008.5 |
| 20260505114003 | 50 | 241 | 7.0 | 18.2 | 0.00 | 0.00 | 0.00 | 78 | 1008.4 |
| 20260505113503 | 49 | 236 | 8.7 | 18.2 | 0.00 | 0.00 | 0.00 | 79 | 1008.4 |
| 20260505113024 | 49 | 235 | 7.8 | 17.4 | 0.00 | 0.00 | 0.00 | 79 | 1008.3 |
| 20260505112503 | 48 | 239 | 7.8 | 18.2 | 0.00 | 0.00 | 0.00 | 79 | 1008.1 |
| 20260505112003 | 48 | 242 | 8.7 | 18.2 | 0.00 | 0.00 | 0.00 | 79 | 1008.1 |
| 20260505111503 | 48 | 236 | 8.7 | 18.2 | 0.00 | 0.00 | 0.00 | 80 | 1008.0 |
| 20260505111003 | 48 | 234 | 8.7 | 18.2 | 0.00 | 0.00 | 0.00 | 80 | 1008.0 |
| 20260505110503 | 48 | 236 | 7.8 | 13.9 | 0.00 | 0.00 | 0.00 | 81 | 1008.0 |
| 20260505102003 | 44 | 236 | 7.8 | 13.0 | 0.00 | 0.00 | 0.00 | 85 | 1007.6 |
| 20260505101503 | 44 | 238 | 7.0 | 13.0 | 0.00 | 0.00 | 0.00 | 86 | 1007.6 |
| 20260505101003 | 43 | 245 | 7.0 | 16.5 | 0.00 | 0.00 | 0.00 | 86 | 1007.5 |
| 20260505100503 | 43 | 249 | 7.0 | 16.5 | 0.00 | 0.00 | 0.00 | 86 | 1007.4 |
| 20260505100003 | 43 | 250 | 7.8 | 19.1 | 0.00 | 0.00 | 0.00 | 86 | 1007.3 |
| 20260505095503 | 43 | 244 | 9.6 | 19.1 | 0.00 | 0.00 | 0.00 | 87 | 1006.9 |
| 20260505095003 | 42 | 237 | 8.7 | 18.2 | 0.00 | 0.00 | 0.00 | 87 | 1006.9 |
| 20260505094503 | 42 | 233 | 8.7 | 18.2 | 0.00 | 0.00 | 0.00 | 87 | 1006.8 |
| 20260505094004 | 42 | 233 | 8.7 | 18.2 | 0.00 | 0.00 | 0.00 | 87 | 1006.7 |
| 20260505093505 | 42 | 234 | 8.7 | 18.2 | 0.00 | 0.00 | 0.00 | 87 | 1006.7 |
| 20260505093004 | 42 | 237 | 8.7 | 18.2 | 0.00 | 0.00 | 0.00 | 87 | 1006.7 |
| 20260505092504 | 42 | 240 | 8.7 | 16.5 | 0.00 | 0.00 | 0.00 | 88 | 1006.7 |
| 20260505092004 | 42 | 238 | 7.8 | 13.9 | 0.00 | 0.00 | 0.00 | 92 | 1006.7 |
| 20260505091504 | 41 | 235 | 7.8 | 18.2 | 0.00 | 0.00 | 0.00 | 88 | 1006.6 |
| 20260505091004 | 41 | 238 | 8.7 | 18.2 | 0.00 | 0.00 | 0.00 | 88 | 1006.7 |
| 20260505090504 | 41 | 245 | 7.8 | 16.5 | 0.00 | 0.00 | 0.00 | 88 | 1006.5 |
| 20260505090004 | 41 | 241 | 7.0 | 13.0 | 0.00 | 0.00 | 0.00 | 88 | 1006.4 |
| 20260505085504 | 41 | 243 | 7.0 | 13.9 | 0.00 | 0.00 | 0.00 | 88 | 1006.2 |
| 20260505085004 | 41 | 245 | 7.0 | 13.9 | 0.00 | 0.00 | 0.00 | 88 | 1006.4 |
| 20260505084504 | 40 | 248 | 7.0 | 12.2 | 0.00 | 0.00 | 0.00 | 88 | 1006.3 |